Lid_Strength_Index
-0 1 2 3 7 8 8 7 7 7 6 4 4 5 6 6 8 12 1 0 0 -0 -1 -1 -1 -1 -1 -1 -1 -1 -1 -1 -1 -1 -1 -1 -1 -1 -1 -1 -1 -1 -1 -1 -2 -2 -1 -1 -1
1 4 3 5 9 9 8 7 8 6 4 4 4 5 6 7 4 3 3 0 -0 -0 -1 -1 -1 -1 -1 -1 -1 -1 -1 -1 -1 -1 -1 -1 -1 -1 -1 -1 -1 -1 -1 -1 -1 -1 -1 -1 -1
3 3 7 6 7 9 8 7 7 5 4 4 5 4 5 6 3 3 1 0 -0 -0 -1 -1 -1 -1 -1 -1 -1 -1 -1 -1 -1 -1 -1 -1 -1 -1 -1 -1 -1 -1 -1 -1 -1 -1 -1 -1 -1
3 4 6 7 8 7 7 6 6 6 4 4 4 6 4 2 2 1 0 -0 -0 -0 -1 -1 -1 -1 -1 -1 -1 -1 -1 -1 -1 -1 -1 -1 -1 -1 -1 -1 -1 -1 -1 -1 -1 -1 -1 -1 -1
3 4 7 7 8 8 7 6 6 6 5 4 4 6 5 2 1 0 0 0 0 -0 -1 -1 -1 -1 -1 -1 -1 -1 -1 -1 -1 -1 -1 -1 -1 -1 -1 -1 -1 -1 -1 -1 -1 -1 -1 -1 -1
5 5 9 8 7 7 7 6 6 5 5 4 4 5 5 1 1 1 0 0 -0 -0 -1 -1 -1 -1 -1 -1 -1 -1 -1 -1 -1 -1 -1 -1 -1 -1 -1 -1 -1 -1 -2 -2 -1 -1 -1 -1 -1
6 7 9 8 8 8 8 5 6 5 5 5 3 5 4 3 1 0 -0 -0 -0 -1 -0 -1 -1 -1 -1 -1 -1 -1 -1 -1 -1 -1 -1 -1 -1 -1 -1 -1 -1 -1 -1 -1 -1 -1 -1 -1 -1
5 6 8 7 7 8 7 6 5 6 6 4 3 5 5 3 1 0 0 0 -0 -0 -0 -1 -1 -1 -1 -1 -1 -1 -1 -1 -1 -1 -1 -1 -1 -1 -1 -1 -1 -1 -1 -1 -1 -2 -2 -2 -2
3 6 8 7 7 6 5 6 5 4 5 4 4 4 4 3 2 2 1 1 0 0 -0 -1 -1 -1 -1 -1 -1 -1 -1 -1 -1 -1 -1 -1 -1 -1 -1 -2 -1 -1 -1 -1 -1 -2 -2 -2 -2
4 6 7 6 5 5 5 5 5 5 4 4 4 3 2 2 2 2 2 2 2 1 0 -0 -1 -1 -1 -1 -1 -1 -1 -1 -1 -1 -2 -1 -2 -2 -1 -2 -1 -1 -1 -1 -1 -1 -1 -1 -1
4 6 5 5 5 4 5 5 5 5 5 4 5 4 3 2 1 2 2 2 1 1 0 0 -1 -1 -1 -0 -1 -1 -1 -1 -1 -2 -2 -2 -1 -1 -1 -1 -1 -1 -1 -1 -1 -1 -1 -1 -1
6 5 5 5 5 5 5 4 5 5 4 4 3 3 3 3 3 2 2 1 1 0 -0 -1 -1 -1 -1 -1 -1 -1 -1 -1 -1 -1 -2 -1 -0 -1 -1 -1 -1 -1 -1 -1 -1 -1 -1 -1 -1
5 5 5 5 5 5 5 5 5 5 4 3 3 3 3 3 2 2 1 1 0 1 0 -0 -1 -1 -1 -1 -1 -1 -1 -1 -1 -1 -1 -1 -0 -0 -0 -1 -1 -1 -1 -1 -1 -0 -1 -1 -1
5 5 5 5 5 5 5 5 5 4 3 4 3 3 2 2 2 2 1 1 0 0 0 -0 -1 -1 -1 -1 -1 -1 -1 -1 -1 -1 -1 -1 -1 -1 -0 -0 0 -1 -1 -1 -1 -1 -1 -0 -1
5 6 5 5 5 5 5 6 6 4 4 4 3 3 2 2 2 1 1 1 0 0 -0 -0 -1 -1 -1 -1 -1 -1 -1 -1 -1 -1 -2 -2 -1 -1 -1 -0 -0 -0 -1 -1 -1 -1 -1 -0 -0
6 6 7 5 5 5 6 8 5 3 4 4 3 3 3 2 2 1 1 1 0 -0 0 -0 -1 -1 -1 -1 -1 -1 -1 -1 -0 -1 -1 -1 -1 -1 -0 -0 0 -1 -1 -0 -0 -0 0 0 0
6 8 8 7 5 6 6 7 5 3 4 4 4 3 3 2 2 1 1 1 1 0 -0 -0 -1 -0 -1 -1 -1 -1 -1 -1 -1 -1 -1 -1 -1 -1 -0 0 -0 -1 0 -0 -0 0 0 1 0
9 8 8 8 6 5 6 6 5 4 4 4 4 3 3 3 2 2 1 1 0 0 -0 -0 -0 -1 -1 -1 -1 -1 -0 -1 -1 -0 -1 -1 -1 -1 -0 -0 -0 -0 0 0 -0 0 -0 0 0
7 7 8 7 5 6 7 6 5 4 4 4 4 3 3 3 2 1 1 1 1 1 0 -0 -0 -1 -0 0 0 1 1 0 -0 -1 -1 -1 -1 -1 -0 -0 -0 -0 0 0 0 1 1 1 0
7 8 8 6 6 6 7 7 5 5 4 4 4 4 3 3 2 2 1 1 1 1 1 -0 -0 -1 -1 -0 -0 -0 0 0 0 -0 -1 -1 -1 -1 -1 -0 0 -0 0 0 0 0 2 1 1
7 8 8 8 7 6 7 8 6 5 4 4 4 3 3 3 3 2 2 1 1 1 1 0 -0 -1 -1 -1 -0 -0 -0 0 0 0 -0 -0 -1 -1 -1 -0 0 -0 0 1 0 0 1 3 2
9 6 7 8 9 11 7 12 8 6 6 5 4 4 3 3 3 2 2 1 1 1 0 0 -1 -1 -1 -1 -0 0 1 1 1 1 0 -0 -0 -0 -1 -0 0 -0 -0 0 0 0 1 1 3
8 6 8 8 9 9 9 10 8 6 7 6 5 4 3 3 2 2 2 1 1 0 0 -0 -1 -1 -1 -1 -1 0 1 1 0 0 0 0 0 -0 -0 -0 -0 -0 0 -0 0 0 1 1 1
6 7 7 7 8 12 9 10 10 8 7 6 5 4 3 3 3 2 1 1 1 0 0 0 -0 -0 -1 -1 -1 -0 0 1 1 1 1 1 0 0 -1 -1 -0 -0 0 0 -0 -0 0 1 1
7 8 13 14 12 13 8 10 9 6 5 5 5 4 3 3 3 2 2 2 1 1 1 0 0 0 -0 -0 -0 -0 -0 0 1 1 1 1 1 1 -0 -0 -0 0 -0 -0 -0 0 0 1 1
7 8 12 17 15 12 9 11 9 6 5 4 4 4 3 3 3 2 2 2 2 1 1 1 1 1 0 -0 -0 -0 -0 0 0 -0 0 1 1 0 -0 0 -0 -0 -0 -0 -0 0 0 0 1
8 10 7 12 11 13 11 9 6 6 6 5 5 4 4 4 3 3 2 2 1 1 1 1 1 0 0 -0 0 0 -0 0 0 -0 0 0 -0 0 -0 0 0 -0 0 -0 -0 1 1 0 0
7 6 11 11 18 17 12 11 11 8 7 6 5 6 6 5 4 3 3 2 1 1 1 0 0 0 0 0 0 0 -0 -0 -0 -0 0 0 -0 0 0 0 0 0 0 0 0 0 0 1 1
8 9 9 9 11 16 16 12 7 7 6 6 6 5 5 6 4 4 2 2 1 1 1 1 0 1 1 0 0 0 0 0 0 0 -0 0 -0 0 0 0 0 0 0 0 0 1 0 1 1
6 8 8 14 13 11 13 14 6 6 5 6 5 5 4 5 5 3 2 2 1 2 1 1 1 1 0 0 0 0 0 0 0 0 0 -0 0 -0 0 0 1 0 1 0 1 1 1 1 1